Location: Anna District 4 Election Precinct
(37.4833°N, 89.2195°W)
Time: 05:51:01
(UTC+00:00)

NOAA 12 - Visible Passes

Search period start: 06 March 2021 00:00
Search period end: 16 March 2021 00:00
Orbit: 796 x 814 km, 98.5° (Epoch: 05 March)

Date Brightness Start Highest point End Pass type
(mag) Time Alt. Az. Time Alt. Az. Time Alt. Az.
06 Mar 5.1 11:51:12 10° NNE 11:56:25 53° E 12:01:34 10° S visible
07 Mar 7.5 00:52:06 10° WSW 00:54:34 13° W 00:57:02 10° WNW visible
07 Mar 6.3 11:26:34 10° NE 11:31:13 30° E 11:35:50 10° SSE visible
08 Mar 6.9 00:25:04 10° SSW 00:29:15 24° W 00:33:28 10° NW visible
08 Mar 7.1 11:02:27 10° NE 11:05:57 18° E 11:09:25 10° SE visible
11 Mar 7.5 00:51:35 10° WSW 00:54:04 13° W 00:56:35 10° WNW visible
11 Mar 6.3 11:26:05 10° NE 11:30:45 30° E 11:35:20 10° SSE visible
12 Mar 6.9 00:24:33 10° SSW 00:28:45 24° W 00:32:59 10° NW visible
12 Mar 7.1 11:02:00 10° NE 11:05:28 17° E 11:08:54 10° SE visible
15 Mar 7.5 00:51:03 10° WSW 00:53:35 13° W 00:56:08 10° WNW visible
15 Mar 6.3 11:25:37 10° NE 11:30:15 30° E 11:34:50 10° SSE visible
